Time,TemperatureF,DewpointF,PressureIn,WindDirection,WindDirectionDegrees,WindSpeedMPH,WindSpeedGustMPH,Humidity,HourlyPrecipIn,Conditions,Clouds,dailyrainin,SoftwareType,DateUTC
2013-09-21 00:04:00,-999.0,-99.9,29.96,ENE,74,5.0,8.0,-999,-99.99,,,-99.99,,2013-09-21 04:04:00,
2013-09-21 00:14:00,-999.0,-99.9,29.96,East,88,5.0,8.0,-999,-99.99,,,-99.99,,2013-09-21 04:14:00,
2013-09-21 00:24:00,-999.0,-99.9,29.96,East,89,4.0,9.0,-999,-99.99,,,-99.99,,2013-09-21 04:24:00,
2013-09-21 00:34:00,-999.0,-99.9,29.96,ESE,110,5.0,9.0,-999,-99.99,,,-99.99,,2013-09-21 04:34:00,
2013-09-21 00:44:00,-999.0,-99.9,29.96,East,86,3.0,8.0,-999,-99.99,,,-99.99,,2013-09-21 04:44:00,
2013-09-21 00:54:00,-999.0,-99.9,29.96,ESE,102,3.0,8.0,-999,-99.99,,,-99.99,,2013-09-21 04:54:00,
2013-09-21 01:04:00,-999.0,-99.9,29.96,East,98,4.0,7.0,-999,-99.99,,,-99.99,,2013-09-21 05:04:00,
2013-09-21 01:13:00,-999.0,-99.9,29.96,East,96,3.0,7.0,-999,-99.99,,,-99.99,,2013-09-21 05:13:00,
2013-09-21 01:23:00,-999.0,-99.9,29.96,East,80,4.0,7.0,-999,-99.99,,,-99.99,,2013-09-21 05:23:00,
2013-09-21 01:34:00,-999.0,-99.9,29.95,ENE,62,3.0,4.0,-999,-99.99,,,-99.99,,2013-09-21 05:34:00,
2013-09-21 01:44:00,-999.0,-99.9,29.95,ENE,62,3.0,3.0,-999,-99.99,,,-99.99,,2013-09-21 05:44:00,
2013-09-21 01:53:00,-999.0,-99.9,29.95,ENE,65,3.0,4.0,-999,-99.99,,,-99.99,,2013-09-21 05:53:00,
2013-09-21 02:02:00,-999.0,-99.9,29.94,ENE,70,4.0,6.0,-999,-99.99,,,-99.99,,2013-09-21 06:02:00,
2013-09-21 02:22:00,75.0,-99.9,29.94,ENE,71,4.0,6.0,-999,-99.99,,,-99.99,,2013-09-21 06:22:00,
2013-09-21 02:53:00,-999.0,-99.9,29.93,East,81,3.0,6.0,-999,-99.99,,,-99.99,,2013-09-21 06:53:00,
2013-09-21 03:01:00,-999.0,-99.9,29.93,East,84,5.0,7.0,-999,-99.99,,,-99.99,,2013-09-21 07:01:00,
2013-09-21 03:22:00,-999.0,-99.9,29.92,East,79,4.0,5.0,-999,-99.99,,,-99.99,,2013-09-21 07:22:00,
2013-09-21 03:42:00,-999.0,-99.9,29.91,ENE,72,2.0,5.0,-999,-99.99,,,-99.99,,2013-09-21 07:42:00,
2013-09-21 03:52:00,-999.0,-99.9,29.91,East,83,3.0,5.0,-999,-99.99,,,-99.99,,2013-09-21 07:52:00,
2013-09-21 04:03:00,-999.0,-99.9,29.91,ESE,116,1.0,3.0,-999,-99.99,,,-99.99,,2013-09-21 08:03:00,
2013-09-21 04:13:00,-999.0,-99.9,29.91,NE,52,3.0,5.0,-999,-99.99,,,-99.99,,2013-09-21 08:13:00,
2013-09-21 04:32:00,-999.0,-99.9,29.90,East,79,3.0,5.0,-999,-99.99,,,-99.99,,2013-09-21 08:32:00,
2013-09-21 04:42:00,-999.0,-99.9,29.90,NE,56,3.0,5.0,-999,-99.99,,,-99.99,,2013-09-21 08:42:00,
2013-09-21 04:52:00,-999.0,-99.9,29.90,NE,53,4.0,6.0,-999,-99.99,,,-99.99,,2013-09-21 08:52:00,
2013-09-21 05:11:00,-999.0,-99.9,29.90,ENE,69,5.0,7.0,-999,-99.99,,,-99.99,,2013-09-21 09:11:00,
2013-09-21 05:22:00,74.0,-99.9,29.90,North,-999,-999.0,-999.0,-999,-99.99,,,-99.99,,2013-09-21 09:22:00,
2013-09-21 05:33:00,-999.0,-99.9,29.89,ENE,77,5.0,7.0,-999,-99.99,,,-99.99,,2013-09-21 09:33:00,
2013-09-21 05:43:00,-999.0,-99.9,29.89,East,82,5.0,7.0,-999,-99.99,,,-99.99,,2013-09-21 09:43:00,
2013-09-21 05:54:00,-999.0,-99.9,29.88,ENE,65,5.0,8.0,-999,-99.99,,,-99.99,,2013-09-21 09:54:00,
2013-09-21 06:23:00,-999.0,-99.9,29.88,ENE,70,5.0,8.0,-999,-99.99,,,-99.99,,2013-09-21 10:23:00,
2013-09-21 06:33:00,-999.0,-99.9,29.88,ENE,67,4.0,7.0,-999,-99.99,,,-99.99,,2013-09-21 10:33:00,
2013-09-21 06:42:00,-999.0,-99.9,29.88,ENE,75,4.0,7.0,-999,-99.99,,,-99.99,,2013-09-21 10:42:00,
2013-09-21 07:03:00,-999.0,-99.9,29.89,ENE,76,4.0,6.0,-999,-99.99,,,-99.99,,2013-09-21 11:03:00,
2013-09-21 07:23:00,-999.0,-99.9,29.89,ENE,66,3.0,5.0,-999,-99.99,,,-99.99,,2013-09-21 11:23:00,
2013-09-21 07:52:00,-999.0,-99.9,29.90,ENE,71,4.0,6.0,-999,-99.99,,,-99.99,,2013-09-21 11:52:00,
2013-09-21 08:12:00,-999.0,-99.9,29.90,ENE,77,4.0,7.0,-999,-99.99,,,-99.99,,2013-09-21 12:12:00,
2013-09-21 08:22:00,-999.0,-99.9,29.90,East,80,3.0,5.0,-999,-99.99,,,-99.99,,2013-09-21 12:22:00,
2013-09-21 08:32:00,-999.0,-99.9,29.91,East,80,3.0,7.0,-999,-99.99,,,-99.99,,2013-09-21 12:32:00,
2013-09-21 08:52:00,-999.0,-99.9,29.91,ENE,75,4.0,6.0,-999,-99.99,,,-99.99,,2013-09-21 12:52:00,
2013-09-21 09:02:00,-999.0,-99.9,29.91,East,79,4.0,6.0,-999,-99.99,,,-99.99,,2013-09-21 13:02:00,
2013-09-21 09:22:00,-999.0,-99.9,29.91,East,83,5.0,7.0,-999,-99.99,,,-99.99,,2013-09-21 13:22:00,
2013-09-21 09:32:00,-999.0,-99.9,29.91,ESE,105,4.0,8.0,-999,-99.99,,,-99.99,,2013-09-21 13:32:00,
2013-09-21 09:42:00,-999.0,-99.9,29.92,East,92,6.0,8.0,-999,-99.99,,,-99.99,,2013-09-21 13:42:00,
2013-09-21 09:53:00,-999.0,-99.9,29.92,ESE,107,6.0,8.0,-999,-99.99,,,-99.99,,2013-09-21 13:53:00,
2013-09-21 10:02:00,-999.0,-99.9,29.92,ESE,109,6.0,8.0,-999,-99.99,,,-99.99,,2013-09-21 14:02:00,
2013-09-21 10:42:00,-999.0,-99.9,29.93,SE,140,6.0,8.0,-999,-99.99,,,-99.99,,2013-09-21 14:42:00,
2013-09-21 10:52:00,-999.0,-99.9,29.93,East,96,4.0,9.0,-999,-99.99,,,-99.99,,2013-09-21 14:52:00,
2013-09-21 11:55:00,-999.0,-99.9,29.91,South,185,4.0,10.0,-999,-99.99,,,-99.99,,2013-09-21 15:55:00,
2013-09-21 12:24:00,-999.0,-99.9,29.91,South,173,3.0,8.0,-999,-99.99,,,-99.99,,2013-09-21 16:24:00,
2013-09-21 12:34:00,-999.0,-99.9,29.91,South,171,5.0,8.0,-999,-99.99,,,-99.99,,2013-09-21 16:34:00,
2013-09-21 12:43:00,-999.0,-99.9,29.91,South,191,2.0,9.0,-999,-99.99,,,-99.99,,2013-09-21 16:43:00,
2013-09-21 12:54:00,-999.0,-99.9,29.90,SW,221,1.0,4.0,-999,-99.99,,,-99.99,,2013-09-21 16:54:00,
2013-09-21 13:23:00,-999.0,-99.9,29.90,South,191,2.0,5.0,-999,-99.99,,,-99.99,,2013-09-21 17:23:00,
2013-09-21 13:34:00,-999.0,-99.9,29.89,SSW,196,2.0,6.0,-999,-99.99,,,-99.99,,2013-09-21 17:34:00,
2013-09-21 13:53:00,-999.0,-99.9,29.89,SSW,192,3.0,14.0,-999,-99.99,,,-99.99,,2013-09-21 17:53:00,
2013-09-21 14:02:00,-999.0,-99.9,29.89,SSW,209,5.0,14.0,-999,-99.99,,,-99.99,,2013-09-21 18:02:00,
2013-09-21 14:22:00,-999.0,-99.9,29.88,SSW,208,4.0,12.0,-999,-99.99,,,-99.99,,2013-09-21 18:22:00,
2013-09-21 14:33:00,-999.0,-99.9,29.88,SSW,207,3.0,7.0,-999,-99.99,,,-99.99,,2013-09-21 18:33:00,
2013-09-21 14:52:00,-999.0,-99.9,29.87,SW,216,6.0,14.0,-999,-99.99,,,-99.99,,2013-09-21 18:52:00,
2013-09-21 15:02:00,-999.0,-99.9,29.87,SW,216,7.0,14.0,-999,-99.99,,,-99.99,,2013-09-21 19:02:00,
2013-09-21 15:22:00,84.0,-99.9,29.85,SW,222,6.0,13.0,-999,-99.99,,,-99.99,,2013-09-21 19:22:00,
2013-09-21 16:12:00,-999.0,-99.9,29.84,WSW,242,10.0,12.0,-999,-99.99,,,-99.99,,2013-09-21 20:12:00,
2013-09-21 16:22:00,-999.0,-99.9,29.83,SW,233,9.0,12.0,-999,-99.99,,,-99.99,,2013-09-21 20:22:00,
2013-09-21 16:43:00,-999.0,-99.9,29.83,SW,234,11.0,12.0,-999,-99.99,,,-99.99,,2013-09-21 20:43:00,
2013-09-21 16:52:00,-999.0,-99.9,29.83,WSW,241,10.0,12.0,-999,-99.99,,,-99.99,,2013-09-21 20:52:00,
2013-09-21 17:02:00,-999.0,-99.9,29.82,SW,236,9.0,11.0,-999,-99.99,,,-99.99,,2013-09-21 21:02:00,
2013-09-21 17:12:00,-999.0,-99.9,29.82,SW,234,8.0,10.0,-999,-99.99,,,-99.99,,2013-09-21 21:12:00,
2013-09-21 17:22:00,-999.0,-99.9,29.82,WSW,251,8.0,10.0,-999,-99.99,,,-99.99,,2013-09-21 21:22:00,
2013-09-21 18:05:00,-999.0,-99.9,29.82,West,260,7.0,9.0,-999,-99.99,,,-99.99,,2013-09-21 22:05:00,
2013-09-21 18:14:00,-999.0,-99.9,29.82,WSW,250,6.0,9.0,-999,-99.99,,,-99.99,,2013-09-21 22:14:00,
2013-09-21 18:24:00,-999.0,-99.9,29.82,WSW,253,7.0,9.0,-999,-99.99,,,-99.99,,2013-09-21 22:24:00,
2013-09-21 19:03:00,-999.0,-99.9,29.83,West,265,5.0,8.0,-999,-99.99,,,-99.99,,2013-09-21 23:03:00,
2013-09-21 19:23:00,-999.0,-99.9,29.82,NW,304,6.0,7.0,-999,-99.99,,,-99.99,,2013-09-21 23:23:00,
2013-09-21 19:42:00,-999.0,-99.9,29.82,WNW,288,5.0,6.0,-999,-99.99,,,-99.99,,2013-09-21 23:42:00,
2013-09-21 19:53:00,-999.0,-99.9,29.82,WNW,287,5.0,6.0,-999,-99.99,,,-99.99,,2013-09-21 23:53:00,
2013-09-21 20:02:00,-999.0,-99.9,29.82,WNW,297,6.0,7.0,-999,-99.99,,,-99.99,,2013-09-22 00:02:00,
2013-09-21 20:23:00,-999.0,-99.9,29.83,WNW,301,7.0,8.0,-999,-99.99,,,-99.99,,2013-09-22 00:23:00,
2013-09-21 20:43:00,-999.0,-99.9,29.83,WNW,300,6.0,7.0,-999,-99.99,,,-99.99,,2013-09-22 00:43:00,
2013-09-21 20:52:00,-999.0,-99.9,29.84,WNW,284,7.0,9.0,-999,-99.99,,,-99.99,,2013-09-22 00:52:00,
2013-09-21 21:12:00,-999.0,-99.9,29.84,WNW,299,6.0,9.0,-999,-99.99,,,-99.99,,2013-09-22 01:12:00,
2013-09-21 21:22:00,-999.0,-99.9,29.84,WNW,294,4.0,6.0,-999,-99.99,,,-99.99,,2013-09-22 01:22:00,
2013-09-21 21:52:00,-999.0,-99.9,29.85,NW,308,4.0,7.0,-999,-99.99,,,-99.99,,2013-09-22 01:52:00,
2013-09-21 22:22:00,-999.0,-99.9,29.85,NW,309,5.0,7.0,-999,-99.99,,,-99.99,,2013-09-22 02:22:00,
2013-09-21 22:32:00,-999.0,-99.9,29.85,NW,320,4.0,5.0,-999,-99.99,,,-99.99,,2013-09-22 02:32:00,
2013-09-21 22:52:00,-999.0,-99.9,29.85,NW,315,1.0,3.0,-999,-99.99,,,-99.99,,2013-09-22 02:52:00,
2013-09-21 23:02:00,-999.0,-99.9,29.85,West,266,2.0,3.0,-999,-99.99,,,-99.99,,2013-09-22 03:02:00,
2013-09-21 23:12:00,-999.0,-99.9,29.86,West,268,3.0,3.0,-999,-99.99,,,-99.99,,2013-09-22 03:12:00,
2013-09-21 23:22:00,-999.0,-99.9,29.86,West,266,1.0,3.0,-999,-99.99,,,-99.99,,2013-09-22 03:22:00,
2013-09-21 23:34:00,-999.0,-99.9,29.85,ESE,116,2.0,2.0,-999,-99.99,,,-99.99,,2013-09-22 03:34:00,
2013-09-21 23:54:00,-999.0,-99.9,29.85,ESE,119,2.0,2.0,-999,-99.99,,,-99.99,,2013-09-22 03:54:00,